Change the Weather History Date:

Friday, February 14, 2014

  Actual Average Record
Temperature  
Mean Temperature 35 °F 28 °F  
Max Temperature 43 °F 39 °F 73 °F (1999)
Min Temperature 27 °F 16 °F -25 °F (1905)
Degree Days  
Heating Degree Days 30 37  
Month to date heating degree days 540  
Since 1 July heating degree days 4434  
Cooling Degree Days 0 0  
Month to date cooling degree days 0  
Year to date cooling degree days 0  
Moisture  
Dew Point 27 °F    
Average Humidity 67    
Maximum Humidity 81    
Minimum Humidity 53    
Precipitation  
Precipitation 0.00 in - 0.67 in (1969)
Sea Level Pressure  
Sea Level Pressure 29.90 in    
Wind  
Wind Speed 13 mph (North)    
Max Wind Speed 18 mph    
Max Gust Speed 22 mph    
Visibility 10 miles    
Events      
T = Trace of Precipitation, MM = Missing Value Source: NWS Daily Summary

Daily Weather History Graph

Daily Weather History Graph

Search for Another Location

Airport or City:

Trip Planner

Search our weather history database for the weather conditions in past years. The results will help you decide how hot, cold, wet, or windy it might be!

Date:

Astronomy

Feb. 14, 2014 Rise Set
Actual Time 7:31 AM CST 6:09 PM CST
Civil Twilight 7:03 AM CST 6:37 PM CST
Nautical Twilight 6:31 AM CST 7:10 PM CST
Astronomical Twilight 5:59 AM CST 7:41 PM CST
Moon 6:15 PM CST (2/14) 6:58 AM CST (2/14)
Length of Visible Light 11h 34m
Length of Day
10h 38m
Full, 100% of the Moon is Illuminated
Feb 14
Full
Feb 14
Full
Feb 22
Last Quarter
Mar 1
New
Mar 8
First Quarter

Hourly Weather History & Observations

Time (CST) Temp. Windchill Dew Point Humidity Pressure Visibility Wind Dir Wind Speed Gust Speed Precip Events Conditions
12:15 AM 42.8 °F 34.0 °F 32.0 °F 66% 29.63 in 10.0 mi NW 20.7 mph 27.6 mph N/A   Mostly Cloudy
12:35 AM 42.8 °F 35.1 °F 33.8 °F 70% 29.63 in 10.0 mi NNW 16.1 mph - N/A   Mostly Cloudy
12:55 AM 41.0 °F 32.2 °F 33.8 °F 76% 29.65 in 10.0 mi NNW 18.4 mph 21.9 mph N/A   Partly Cloudy
1:15 AM 39.2 °F 30.8 °F 32.0 °F 75% 29.65 in 10.0 mi NNW 15.0 mph - N/A   Clear
1:35 AM 39.2 °F 29.6 °F 32.0 °F 75% 29.67 in 10.0 mi NNW 19.6 mph 23.0 mph N/A   Scattered Clouds
1:55 AM 39.2 °F 31.2 °F 32.0 °F 75% 29.68 in 10.0 mi NNW 13.8 mph - N/A   Mostly Cloudy
2:15 AM 37.4 °F 30.8 °F 32.0 °F 81% 29.69 in 10.0 mi NW 9.2 mph - N/A   Scattered Clouds
2:35 AM 39.2 °F 33.0 °F 32.0 °F 75% 29.70 in 10.0 mi NW 9.2 mph - N/A   Mostly Cloudy
2:55 AM 39.2 °F 31.6 °F 30.2 °F 70% 29.69 in 10.0 mi NW 12.7 mph - N/A   Mostly Cloudy
3:15 AM 39.2 °F 32.0 °F 30.2 °F 70% 29.70 in 10.0 mi NW 11.5 mph - N/A   Partly Cloudy
3:35 AM 37.4 °F 30.3 °F 30.2 °F 75% 29.71 in 10.0 mi NW 10.4 mph - N/A   Clear
3:55 AM 37.4 °F 29.8 °F 30.2 °F 75% 29.72 in 10.0 mi NW 11.5 mph 17.3 mph N/A   Clear
4:15 AM 37.4 °F 29.8 °F 28.4 °F 70% 29.74 in 10.0 mi NW 11.5 mph - N/A   Clear
4:35 AM 37.4 °F 29.8 °F 28.4 °F 70% 29.74 in 10.0 mi NW 11.5 mph - N/A   Clear
4:55 AM 39.2 °F 31.2 °F 28.4 °F 65% 29.76 in 10.0 mi NW 13.8 mph - N/A   Clear
5:15 AM 39.2 °F 31.6 °F 28.4 °F 65% 29.77 in 10.0 mi NW 12.7 mph - N/A   Clear
5:35 AM 39.2 °F 30.5 °F 28.4 °F 65% 29.78 in 10.0 mi NW 16.1 mph - N/A   Clear
5:55 AM 37.4 °F 28.9 °F 28.4 °F 70% 29.78 in 10.0 mi NW 13.8 mph - N/A   Clear
6:15 AM 37.4 °F 28.9 °F 28.4 °F 70% 29.79 in 10.0 mi NW 13.8 mph - N/A   Clear
6:35 AM 37.4 °F 28.5 °F 28.4 °F 70% 29.80 in 10.0 mi NW 15.0 mph 18.4 mph N/A   Clear
6:55 AM 37.4 °F 28.2 °F 28.4 °F 70% 29.81 in 10.0 mi NW 16.1 mph - N/A   Clear
7:15 AM 37.4 °F 27.5 °F 28.4 °F 70% 29.82 in 10.0 mi NW 18.4 mph 23.0 mph N/A   Clear
7:35 AM 37.4 °F 28.5 °F 28.4 °F 70% 29.84 in 10.0 mi WNW 15.0 mph 20.7 mph N/A   Clear
7:55 AM 35.6 °F 27.1 °F 28.4 °F 75% 29.85 in 10.0 mi WNW 12.7 mph - N/A   Clear
8:15 AM 35.6 °F 27.1 °F 28.4 °F 75% 29.87 in 10.0 mi WNW 12.7 mph - N/A   Clear
8:35 AM 37.4 °F 28.2 °F 28.4 °F 70% 29.88 in 10.0 mi NW 16.1 mph - N/A   Clear
8:55 AM 39.2 °F 30.8 °F 28.4 °F 65% 29.90 in 10.0 mi NW 15.0 mph - N/A   Clear
9:15 AM 39.2 °F 30.2 °F 28.4 °F 65% 29.91 in 10.0 mi NNW 17.3 mph 23.0 mph N/A   Clear
9:35 AM 41.0 °F 32.5 °F 28.4 °F 61% 29.93 in 10.0 mi NNW 17.3 mph 21.9 mph N/A   Clear
9:55 AM 42.8 °F 34.8 °F 28.4 °F 57% 29.93 in 10.0 mi North 17.3 mph 21.9 mph N/A   Clear
10:15 AM 42.8 °F 34.8 °F 28.4 °F 57% 29.95 in 10.0 mi North 17.3 mph - N/A   Clear
10:35 AM 39.2 °F 30.8 °F 28.4 °F 65% 29.97 in 10.0 mi NNE 15.0 mph - N/A   Scattered Clouds
10:55 AM 39.2 °F 30.8 °F 28.4 °F 65% 29.98 in 10.0 mi North 15.0 mph - N/A   Partly Cloudy
11:15 AM 41.0 °F 32.8 °F 28.4 °F 61% 29.99 in 10.0 mi NNE 16.1 mph 23.0 mph N/A   Clear
11:35 AM 39.2 °F 30.5 °F 28.4 °F 65% 29.99 in 10.0 mi NNE 16.1 mph - N/A   Partly Cloudy
11:55 AM 39.2 °F 30.5 °F 28.4 °F 65% 29.99 in 10.0 mi North 16.1 mph - N/A   Partly Cloudy
12:15 PM 39.2 °F 31.2 °F 28.4 °F 65% 30.00 in 10.0 mi NNE 13.8 mph - N/A   Clear
12:35 PM 39.2 °F 29.8 °F 28.4 °F 65% 30.00 in 10.0 mi North 18.4 mph - N/A   Clear
12:55 PM 39.2 °F 32.5 °F 28.4 °F 65% 30.00 in 10.0 mi NNE 10.4 mph - N/A   Partly Cloudy
1:15 PM 39.2 °F 31.6 °F 26.6 °F 61% 30.00 in 10.0 mi NNE 12.7 mph - N/A   Partly Cloudy
1:35 PM 39.2 °F 30.8 °F 26.6 °F 61% 29.99 in 10.0 mi NNE 15.0 mph - N/A   Clear
1:55 PM 39.2 °F 30.8 °F 26.6 °F 61% 29.99 in 10.0 mi North 15.0 mph - N/A   Clear
2:15 PM 39.2 °F 30.8 °F 26.6 °F 61% 30.00 in 10.0 mi North 15.0 mph - N/A   Clear
2:35 PM 39.2 °F 30.8 °F 26.6 °F 61% 30.00 in 10.0 mi NNE 15.0 mph - N/A   Clear
2:55 PM 41.0 °F 32.8 °F 26.6 °F 57% 30.00 in 10.0 mi North 16.1 mph 19.6 mph N/A   Clear
3:15 PM 41.0 °F 33.5 °F 26.6 °F 57% 29.99 in 10.0 mi NNE 13.8 mph - N/A   Clear
3:35 PM 42.8 °F 35.8 °F 26.6 °F 53% 30.00 in 10.0 mi North 13.8 mph - N/A   Clear
3:55 PM 42.8 °F 35.4 °F 26.6 °F 53% 29.99 in 10.0 mi North 15.0 mph - N/A   Clear
4:15 PM 41.0 °F 33.9 °F 26.6 °F 57% 30.00 in 10.0 mi North 12.7 mph - N/A   Clear
4:35 PM 39.2 °F 31.2 °F 24.8 °F 56% 30.00 in 10.0 mi North 13.8 mph - N/A   Clear
4:55 PM 39.2 °F 32.0 °F 24.8 °F 56% 30.01 in 10.0 mi NNE 11.5 mph - N/A   Clear
5:15 PM 39.2 °F 32.0 °F 24.8 °F 56% 30.01 in 10.0 mi NNE 11.5 mph - N/A   Clear
5:35 PM 37.4 °F 30.8 °F 24.8 °F 60% 30.01 in 10.0 mi NE 9.2 mph - N/A   Clear
5:55 PM 35.6 °F 28.6 °F 24.8 °F 65% 30.01 in 10.0 mi ENE 9.2 mph - N/A   Clear
6:15 PM 32.0 °F 24.8 °F 24.8 °F 75% 30.01 in 10.0 mi East 8.1 mph - N/A   Clear
6:35 PM 30.2 °F 21.9 °F 23.0 °F 75% 30.00 in 10.0 mi ESE 9.2 mph - N/A   Clear
6:55 PM 30.2 °F 22.6 °F 23.0 °F 75% 30.00 in 10.0 mi ESE 8.1 mph - N/A   Clear
7:15 PM 28.4 °F 20.4 °F 23.0 °F 80% 30.00 in 10.0 mi ESE 8.1 mph - N/A   Clear
7:35 PM 28.4 °F 20.4 °F 23.0 °F 80% 30.00 in 10.0 mi ESE 8.1 mph - N/A   Clear
7:55 PM 28.4 °F 19.7 °F 23.0 °F 80% 29.99 in 10.0 mi ESE 9.2 mph - N/A   Clear
8:15 PM 26.6 °F 20.0 °F 21.2 °F 80% 29.99 in 10.0 mi SE 5.8 mph - N/A   Clear
8:35 PM 26.6 °F 20.0 °F 21.2 °F 80% 30.00 in 10.0 mi SE 5.8 mph - N/A   Clear
8:55 PM 26.6 °F 18.2 °F 21.2 °F 80% 30.00 in 10.0 mi SSE 8.1 mph - N/A   Clear
9:15 PM 26.6 °F 18.2 °F 21.2 °F 80% 30.00 in 10.0 mi SSE 8.1 mph - N/A   Clear
9:35 PM 26.6 °F 17.5 °F 21.2 °F 80% 30.00 in 10.0 mi South 9.2 mph - N/A   Clear
9:55 PM 28.4 °F 18.5 °F 21.2 °F 74% 29.99 in 10.0 mi SSE 11.5 mph - N/A   Clear
10:15 PM 26.6 °F 16.8 °F 21.2 °F 80% 29.99 in 10.0 mi South 10.4 mph - N/A   Clear
10:35 PM 26.6 °F 16.8 °F 21.2 °F 80% 29.99 in 10.0 mi SSE 10.4 mph - N/A   Partly Cloudy
10:55 PM 26.6 °F 18.2 °F 21.2 °F 80% 29.98 in 10.0 mi South 8.1 mph - N/A   Partly Cloudy
11:15 PM 26.6 °F 15.7 °F 21.2 °F 80% 29.97 in 10.0 mi South 12.7 mph - N/A   Scattered Clouds
11:35 PM 28.4 °F 17.5 °F 21.2 °F 74% 29.97 in 10.0 mi South 13.8 mph - N/A   Overcast
11:55 PM 28.4 °F 17.5 °F 23.0 °F 80% 29.95 in 10.0 mi South 13.8 mph - N/A   Overcast